When you browse on this site, cookies collect data to enhance your experience and personalize the content and advertising you see.
Visit our Privacy Policy to learn more. By continuing to use the site, you agree to this use of cookies and data.

Hourly Weather Newport

Today, 3 July, Friday

Time Temperature Precipitation Wind Pressure Humidity
00:00 +11°C° 0 mm 4 mps 760 mmHg 95%
01:00 +12°C° 0 mm 5 mps 760 mmHg 94%
02:00 +12°C° 0 mm 5 mps 760 mmHg 93%
03:00 +11°C° 0 mm 6 mps 760 mmHg 93%
04:00 +12°C° 0 mm 7 mps 760 mmHg 92%
05:00 +12°C° 0 mm 7 mps 760 mmHg 91%
06:00 +12°C° 0 mm 8 mps 760 mmHg 89%
07:00 +12°C° 0 mm 8 mps 760 mmHg 89%
08:00 +13°C° 0 mm 9 mps 760 mmHg 88%
09:00 +13°C° 0 mm 9 mps 760 mmHg 88%
10:00 +13°C° 0 mm 10 mps 759 mmHg 88%
11:00 +13°C° 0 mm 10 mps 759 mmHg 88%
12:00 +14°C° 0 mm 10 mps 759 mmHg 89%
13:00 +13°C° 0.3 mm 10 mps 759 mmHg 91%
14:00 +13°C° 0.3 mm 11 mps 758 mmHg 93%
15:00 +13°C° 0.3 mm 11 mps 758 mmHg 95%
16:00 +13°C° 0.4 mm 11 mps 758 mmHg 96%
17:00 +13°C° 0.4 mm 11 mps 757 mmHg 96%
18:00 +14°C° 0.4 mm 11 mps 757 mmHg 97%
19:00 +14°C° 0.5 mm 10 mps 757 mmHg 97%
20:00 +14°C° 0.5 mm 10 mps 757 mmHg 98%
21:00 +15°C° 0.5 mm 9 mps 756 mmHg 98%
22:00 +15°C° 0.5 mm 9 mps 756 mmHg 98%
23:00 +16°C° 0.5 mm 9 mps 756 mmHg 98%

Tomorrow, 4 July, Saturday

Time Temperature Precipitation Wind Pressure Humidity
00:00 +16°C° 0.5 mm 8 mps 756 mmHg 98%
01:00 +16°C° 0.3 mm 8 mps 755 mmHg 98%
02:00 +16°C° 0.3 mm 9 mps 755 mmHg 98%
03:00 +16°C° 0.3 mm 9 mps 755 mmHg 98%
04:00 +16°C° 0.1 mm 8 mps 755 mmHg 98%
05:00 +15°C° 0.1 mm 8 mps 755 mmHg 98%
06:00 +15°C° 0.1 mm 7 mps 755 mmHg 98%
07:00 +15°C° 0 mm 7 mps 756 mmHg 97%
08:00 +15°C° 0 mm 7 mps 756 mmHg 97%
09:00 +16°C° 0 mm 7 mps 756 mmHg 97%
10:00 +16°C° 0 mm 7 mps 756 mmHg 96%
11:00 +16°C° 0 mm 7 mps 756 mmHg 96%
12:00 +16°C° 0 mm 7 mps 756 mmHg 96%
13:00 +16°C° 0 mm 7 mps 756 mmHg 96%
14:00 +16°C° 0 mm 7 mps 756 mmHg 96%
15:00 +16°C° 0 mm 7 mps 756 mmHg 96%
16:00 +16°C° 0 mm 7 mps 756 mmHg 96%
17:00 +16°C° 0 mm 7 mps 756 mmHg 96%
18:00 +16°C° 0 mm 7 mps 756 mmHg 97%
19:00 +16°C° 0 mm 8 mps 756 mmHg 96%
20:00 +16°C° 0 mm 8 mps 756 mmHg 96%
21:00 +15°C° 0 mm 8 mps 757 mmHg 96%
22:00 +15°C° 0.1 mm 8 mps 756 mmHg 96%
23:00 +15°C° 0.1 mm 8 mps 756 mmHg 96%

Day after tomorrow, 5 July, Sunday

Time Temperature Precipitation Wind Pressure Humidity
00:00 +15°C° 0.1 mm 9 mps 756 mmHg 96%
01:00 +14°C° 0.2 mm 10 mps 755 mmHg 96%
02:00 +14°C° 0.2 mm 11 mps 755 mmHg 97%
03:00 +15°C° 0.2 mm 12 mps 754 mmHg 97%
04:00 +16°C° 0.2 mm 11 mps 754 mmHg 96%
05:00 +16°C° 0.2 mm 11 mps 754 mmHg 96%
06:00 +14°C° 0.2 mm 11 mps 754 mmHg 96%
07:00 +14°C° 0.1 mm 10 mps 755 mmHg 92%
08:00 +15°C° 0.1 mm 9 mps 755 mmHg 88%
09:00 +13°C° 0.1 mm 9 mps 756 mmHg 85%
10:00 +13°C° 0 mm 9 mps 756 mmHg 81%
11:00 +13°C° 0 mm 10 mps 757 mmHg 78%
12:00 +13°C° 0 mm 10 mps 757 mmHg 75%
13:00 +13°C° 0 mm 10 mps 757 mmHg 75%
14:00 +13°C° 0 mm 10 mps 757 mmHg 75%
15:00 +13°C° 0 mm 11 mps 757 mmHg 76%
16:00 +13°C° 0.1 mm 11 mps 757 mmHg 77%
17:00 +13°C° 0.1 mm 11 mps 757 mmHg 78%
18:00 +12°C° 0.1 mm 11 mps 757 mmHg 79%
19:00 +12°C° 0 mm 11 mps 758 mmHg 80%
20:00 +12°C° 0 mm 10 mps 758 mmHg 80%
21:00 +11°C° 0 mm 10 mps 758 mmHg 80%
22:00 +11°C° 0.1 mm 10 mps 758 mmHg 81%
23:00 +9°C° 0.1 mm 10 mps 759 mmHg 83%

6 July, Monday

Time Temperature Precipitation Wind Pressure Humidity
00:00 +9°C° 0.1 mm 10 mps 759 mmHg 84%
01:00 +9°C° 0 mm 10 mps 759 mmHg 85%
02:00 +10°C° 0 mm 9 mps 760 mmHg 87%
03:00 +8°C° 0 mm 9 mps 760 mmHg 88%
04:00 +10°C° 0 mm 9 mps 761 mmHg 87%
05:00 +10°C° 0 mm 9 mps 761 mmHg 87%
06:00 +10°C° 0 mm 8 mps 762 mmHg 86%
07:00 +11°C° 0 mm 8 mps 762 mmHg 83%
08:00 +12°C° 0 mm 7 mps 763 mmHg 79%
09:00 +14°C° 0 mm 7 mps 763 mmHg 75%
10:00 +14°C° 0 mm 6 mps 764 mmHg 76%
11:00 +14°C° 0 mm 6 mps 764 mmHg 76%
12:00 +14°C° 0 mm 6 mps 765 mmHg 76%
13:00 +15°C° 0 mm 6 mps 765 mmHg 74%
14:00 +16°C° 0 mm 6 mps 765 mmHg 72%
15:00 +16°C° 0 mm 6 mps 765 mmHg 71%
16:00 +16°C° 0 mm 6 mps 765 mmHg 72%
17:00 +16°C° 0 mm 5 mps 765 mmHg 74%
18:00 +16°C° 0 mm 5 mps 766 mmHg 76%
19:00 +14°C° 0 mm 4 mps 766 mmHg 81%
20:00 +13°C° 0 mm 4 mps 766 mmHg 86%
21:00 +11°C° 0 mm 3 mps 767 mmHg 91%
22:00 +12°C° 0 mm 2 mps 767 mmHg 91%
23:00 +10°C° 0 mm 2 mps 767 mmHg 91%

7 July, Tuesday

Time Temperature Precipitation Wind Pressure Humidity
00:00 +11°C° 0 mm 1 mps 767 mmHg 91%
01:00 +11°C° 0 mm 1 mps 767 mmHg 91%
02:00 +10°C° 0 mm 1 mps 767 mmHg 91%
03:00 +10°C° 0 mm 1 mps 767 mmHg 92%
04:00 +11°C° 0 mm 1 mps 767 mmHg 91%
05:00 +12°C° 0 mm 1 mps 767 mmHg 91%
06:00 +13°C° 0 mm 1 mps 767 mmHg 90%
07:00 +14°C° 0 mm 2 mps 767 mmHg 85%
08:00 +15°C° 0 mm 2 mps 767 mmHg 79%
09:00 +17°C° 0 mm 2 mps 767 mmHg 73%
10:00 +17°C° 0 mm 3 mps 767 mmHg 71%
11:00 +18°C° 0 mm 4 mps 766 mmHg 69%
12:00 +18°C° 0 mm 4 mps 766 mmHg 67%
13:00 +18°C° 0 mm 4 mps 766 mmHg 69%
14:00 +16°C° 0 mm 5 mps 766 mmHg 70%
15:00 +16°C° 0 mm 5 mps 766 mmHg 72%
16:00 +15°C° 0 mm 5 mps 766 mmHg 75%
17:00 +15°C° 0 mm 4 mps 766 mmHg 78%
18:00 +14°C° 0 mm 4 mps 765 mmHg 80%
19:00 +14°C° 0 mm 4 mps 765 mmHg 82%
20:00 +13°C° 0 mm 4 mps 765 mmHg 83%
21:00 +13°C° 0 mm 4 mps 765 mmHg 84%
22:00 +13°C° 0 mm 4 mps 765 mmHg 87%
23:00 +13°C° 0 mm 4 mps 765 mmHg 90%

8 July, Wednesday

Time Temperature Precipitation Wind Pressure Humidity
00:00 +13°C° 0 mm 5 mps 765 mmHg 93%
01:00 +13°C° 0 mm 5 mps 764 mmHg 94%
02:00 +14°C° 0 mm 6 mps 764 mmHg 94%
03:00 +14°C° 0 mm 6 mps 764 mmHg 95%
04:00 +14°C° 0 mm 6 mps 764 mmHg 95%
05:00 +15°C° 0 mm 6 mps 763 mmHg 94%
06:00 +15°C° 0 mm 6 mps 763 mmHg 94%
07:00 +15°C° 0 mm 7 mps 763 mmHg 93%
08:00 +16°C° 0 mm 7 mps 763 mmHg 93%
09:00 +16°C° 0 mm 7 mps 763 mmHg 92%
10:00 +16°C° 0 mm 7 mps 763 mmHg 91%
11:00 +16°C° 0 mm 8 mps 763 mmHg 91%
12:00 +16°C° 0 mm 8 mps 763 mmHg 90%
13:00 +16°C° 0 mm 8 mps 762 mmHg 91%
14:00 +16°C° 0 mm 8 mps 762 mmHg 93%
15:00 +16°C° 0 mm 8 mps 762 mmHg 94%
16:00 +16°C° 0 mm 8 mps 762 mmHg 94%
17:00 +16°C° 0 mm 8 mps 762 mmHg 94%
18:00 +16°C° 0 mm 8 mps 762 mmHg 94%
19:00 +16°C° 0 mm 7 mps 762 mmHg 94%
20:00 +15°C° 0 mm 6 mps 762 mmHg 95%
21:00 +15°C° 0 mm 6 mps 762 mmHg 96%
22:00 +15°C° 0 mm 5 mps 762 mmHg 97%
23:00 +15°C° 0 mm 5 mps 762 mmHg 97%
Show more